Regional Weather Roundup
Issued by NWS

Home | Current Version | Previous Version | Graphics & Text | Print | Product List | Glossary On
Versions: 1 2 3 4 5 6 7 8 9 10 11 12 13 14 15 16 17 18 19 20 21 22 23 24 25 26 27 28 29 30 31 32 33 34 35 36 37 38 39 40 41 42 43 44 45 46 47 48 49 50
000
ASUS44 KMEG 110410
RWRTN
TENNESSEE HOURLY STATE WEATHER ROUNDUP
NATIONAL WEATHER SERVICE MEMPHIS TN
1100 PM CDT THU JUL 10 2014

TNZ002-004-019-021-049-052-054-088>092-110500-
WEST TENNESSEE

CITY           SKY/WX    TMP DP  RH WIND       PRES   REMARKS
MEMPHIS INTL   CLOUDY    80  64  58 E5        30.10R
NWS MEMPHIS      N/A     73 N/A N/A MISG        N/A
JACKSON        CLOUDY    72  70  93 CALM      30.12R
DYERSBURG      CLOUDY    75  63  64 CALM      30.12S
UNION CITY     CLEAR     75  66  73 NE3       30.11S
PARIS          MOCLDY    69  66  90 NE3       30.14R
LEXINGTON      CLEAR     70  68  94 CALM      30.11S
SAVANNAH       CLOUDY    68  68 100 CALM      30.13R
$$

TNZ008-025-027-028-033-062-065-066-110500-
NORTH MIDDLE TENNESSEE

CITY           SKY/WX    TMP DP  RH WIND       PRES   REMARKS
NASHVILLE      MOCLDY    77  64  64 N5        30.13R
DICKSON        PTCLDY    73  64  73 NE6       30.14R
PORTLAND       CLEAR     72  63  73 CALM      30.13R
CLARKSVILLE    MOCLDY    73  64  73 CALM      30.13R
LEBANON        PTCLDY    71  62  73 CALM      30.12R
SMYRNA         MOCLDY    72  66  81 CALM      30.14R
MURFREESBORO   PTCLDY    75  64  68 CALM      30.12R
COOKEVILLE     CLEAR     68  66  94 CALM      30.14R
LIVINGSTON     PTCLDY    71  63  76 CALM      30.16
GALLATIN       PTCLDY    76  64  66 N5        30.14R
CROSSVILLE     PTCLDY    67  63  87 CALM      30.19R
$$

TNZ061-075-076-078-094-096-097-110500-
SOUTH MIDDLE TENNESSEE

CITY           SKY/WX    TMP DP  RH WIND       PRES   REMARKS
LEWISBURG      PTCLDY    70  66  86 CALM      30.12R
TULLAHOMA      CLEAR     68  63  83 CALM      30.16R
WINCHESTER     PTCLDY    68  66  94 CALM      30.15R
MCMINNVILLE    CLEAR     68  68 100 CALM      30.15R
COLUMBIA       CLEAR     72  68  88 CALM      30.12R
$$

TNZ017-018-042-046-047-110500-
NORTHEAST TENNESSEE

CITY           SKY/WX    TMP DP  RH WIND       PRES   REMARKS
TRI CITIES     CLOUDY    68  63  84 CALM      30.16R
ELIZABETHTON   CLOUDY    66  63  88 NE5       30.17S
$$

TNZ012-013-036-069-073-074-110500-
CENTRAL EAST TENNESSEE

CITY           SKY/WX    TMP DP  RH WIND       PRES   REMARKS
KNOXVILLE      MOCLDY    69  67  93 E3        30.12R
OAK RIDGE      CLEAR     71  69  93 CALM      30.15R
$$

TNZ083-085-099-110500-
SOUTHEAST TENNESSEE

CITY           SKY/WX    TMP DP  RH WIND       PRES   REMARKS
CHATTANOOGA    MOCLDY    75  68  78 CALM      30.12R
$$

SKY/WX REPORTED AS FAIR MEANS FEW OR NO CLOUDS BELOW
12 THOUSAND FEET.




USA.gov is the U.S. government's official web portal to all federal, state and local government web resources and services.